This is the latest recevied weather packets stored in our database for station/object EB1TK-13. If no packets are shown the sender has not sent any weather packets the latest 10 day(s).
| Time | Temp. | Humidity | Pressure | Rain* | Wind** | Luminosity | Snow |
|---|---|---|---|---|---|---|---|
| 1778269937 | 12.78° C | 93% | 1010.3 hPa | 0 mm | - | - | - |
| 1778269337 | 12.78° C | 93% | 1010 hPa | 0 mm | - | - | - |
| 1778268735 | 12.78° C | 93% | 1010.1 hPa | 0 mm | - | - | - |
| 1778268135 | 12.78° C | 93% | 1010 hPa | 0 mm | - | - | - |
| 1778267536 | 12.78° C | 93% | 1010 hPa | 0 mm | - | - | - |
| 1778266936 | 13.89° C | 93% | 1010 hPa | 0 mm | - | - | - |
| 1778266336 | 13.89° C | 93% | 1009.8 hPa | 0 mm | - | - | - |
| 1778265737 | 13.89° C | 93% | 1009.3 hPa | 0 mm | - | - | - |
| 1778265137 | 13.89° C | 93% | 1009.3 hPa | 0 mm | - | - | - |
| 1778264535 | 13.89° C | 93% | 1009.2 hPa | 0 mm | - | - | - |
| 1778263935 | 13.89° C | 93% | 1009.2 hPa | 0.25 mm | - | - | - |
| 1778263336 | 13.89° C | 93% | 1009.2 hPa | 0.51 mm | - | - | - |
| 1778262736 | 13.89° C | 94% | 1009 hPa | 0.76 mm | - | - | - |
| 1778262137 | 13.89° C | 94% | 1009.2 hPa | 1.27 mm | - | - | - |
| 1778261542 | 13.33° C | 94% | 1009 hPa | 1.52 mm | - | - | - |
| 1778260937 | 13.33° C | 94% | 1009 hPa | 1.52 mm | - | - | - |
| 1778260335 | 13.89° C | 94% | 1008.9 hPa | 1.52 mm | - | - | - |
| 1778259735 | 13.33° C | 94% | 1008.9 hPa | 1.27 mm | - | - | - |
| 1778259136 | 13.89° C | 93% | 1009 hPa | 0.76 mm | - | - | - |
| 1778258541 | 13.89° C | 93% | 1009.1 hPa | 0.51 mm | - | - | - |
| 1778257937 | 13.89° C | 92% | 1009.2 hPa | 0.25 mm | - | - | - |
| 1778257337 | 14.44° C | 90% | 1009.1 hPa | 0.25 mm | - | - | - |
| 1778256735 | 14.44° C | 89% | 1009.1 hPa | 0 mm | - | - | - |
| 1778256135 | 15° C | 88% | 1008.8 hPa | 0 mm | - | - | - |
| 1778255535 | 15° C | 88% | 1008.5 hPa | 0 mm | - | - | - |
* Rain latest hour (hover to see other rain measurements)
** Current wind speed in m/s (hover to see current wind gust speed)